SCP
0 0 0 0 0 0 0 0 0 1 1 0 0 0 0 0 0 0 0 0 0 0 0 0 0 0 0 0 0 0 0 0 0 0 0 0 0 0 0 0 0 0 0
0 0 0 0 0 0 0 0 0 0 0 1 1 1 1 0 0 1 0 0 1 0 0 0 0 0 0 0 0 0 0 0 0 0 0 0 0 0 0 0 0 0 0
-0 0 0 0 0 0 0 0 0 0 0 0 1 0 0 0 1 1 1 1 1 1 1 0 0 0 0 0 0 0 0 0 0 0 0 0 0 0 0 0 0 0 0
0 -0 -0 0 0 0 0 0 0 0 0 0 0 1 1 1 1 1 1 1 1 1 1 1 0 0 0 0 0 0 0 0 0 0 0 0 0 0 0 0 0 0 0
0 0 0 0 0 0 0 0 0 0 0 0 0 1 1 1 1 0 1 1 1 1 1 1 1 1 1 1 0 0 0 0 0 0 0 0 0 0 0 0 0 0 0
0 0 0 0 0 0 0 0 0 0 0 0 0 0 0 0 0 0 0 0 0 0 1 1 1 1 1 1 0 0 0 0 0 0 0 0 0 0 0 0 0 0 0
0 0 0 0 0 0 0 0 0 0 0 0 0 0 0 1 0 0 0 0 0 1 1 1 1 1 1 1 1 0 0 0 0 0 0 0 0 0 0 0 0 0 0
-0 -0 0 0 0 0 0 0 0 0 0 0 0 0 0 1 0 0 0 0 0 1 1 1 1 1 1 1 1 1 0 0 0 0 0 0 0 0 0 0 0 0 0
-0 -0 -0 -0 0 0 0 0 0 0 0 0 0 0 0 0 0 0 0 0 0 1 1 1 1 1 1 1 0 0 0 0 0 0 0 0 0 0 0 0 0 0 0
-0 -0 -0 -0 -0 0 0 0 0 0 0 0 0 0 0 0 0 0 0 0 0 1 1 1 1 1 1 0 0 0 0 0 0 0 0 0 0 0 0 0 0 0 0
-0 -0 -0 -0 0 0 0 0 0 0 0 0 0 0 0 0 0 0 0 0 1 1 1 1 1 1 1 0 0 0 0 0 0 0 0 0 0 0 0 0 0 0 0
0 -0 -0 -0 0 0 0 0 0 0 0 0 0 0 0 0 0 0 0 0 1 1 1 1 1 1 0 0 0 0 0 0 0 0 0 0 0 0 0 0 0 0 0
-0 -0 -0 -0 0 0 0 0 0 0 0 0 0 0 0 0 0 0 0 1 1 1 2 1 1 1 0 0 0 0 0 0 0 0 0 0 0 0 0 0 0 0 0
-0 -0 -0 -0 0 0 0 0 0 0 0 0 0 0 0 0 1 1 1 1 2 2 1 1 1 1 0 0 0 0 0 0 0 0 0 0 0 0 0 0 0 0 0
-0 -0 -0 -0 0 0 0 0 0 0 0 2 1 1 1 2 2 2 2 2 2 1 1 1 1 1 0 0 0 0 0 0 0 0 0 0 0 0 0 0 0 0 0
0 0 -0 -0 0 0 0 0 0 0 0 3 2 3 4 4 3 3 2 1 1 2 1 1 1 0 0 0 0 0 0 0 0 0 0 0 0 0 0 0 0 0 0
0 -0 -0 -0 0 0 0 0 0 0 0 1 2 1 2 2 2 2 1 1 2 1 1 0 0 0 0 0 0 0 0 0 0 0 0 0 0 0 0 0 0 0 0
-0 0 0 -0 0 0 0 0 0 0 0 0 2 2 2 1 2 1 1 1 1 1 0 0 0 0 0 0 0 0 0 0 0 0 0 0 0 0 0 0 0 0 0
-0 -0 -0 -0 0 0 0 0 0 0 0 0 1 1 1 1 1 1 1 0 0 0 0 0 0 0 0 0 0 0 0 0 0 0 0 0 0 0 0 0 0 0 0
0 0 -0 0 0 0 0 0 0 0 0 0 0 1 1 1 1 0 0 0 0 0 0 0 0 0 0 0 0 0 0 0 0 0 0 0 0 0 0 0 0 0 0
0 0 -0 0 0 0 -0 0 0 0 0 0 0 1 0 0 0 0 0 0 0 0 0 0 0 0 0 0 0 0 0 0 0 0 0 0 0 0 0 0 0 0 0
0 0 -0 -0 0 0 0 0 0 0 0 0 0 0 0 0 0 0 0 0 0 0 0 0 0 0 0 0 0 0 0 0 0 0 0 0 0 0 0 0 0 0 0
-0 -0 -0 -0 0 0 0 0 0 0 0 0 0 0 0 0 0 0 0 0 0 0 0 0 0 0 0 0 0 0 0 0 0 0 0 0 0 -0 0 -0 -0 0 0
-0 -0 -0 -0 -0 0 0 0 -0 -0 0 0 0 0 0 0 0 0 0 0 0 0 0 0 0 0 0 0 0 0 0 0 0 0 0 0 0 0 0 0 0 0 0
-0 -0 -0 -0 -0 -0 0 -0 -0 0 0 0 0 0 0 0 0 0 0 0 0 0 0 0 0 0 0 0 0 0 0 0 0 0 0 0 0 0 0 0 0 0 0
-0 -0 -0 -0 -0 -0 -0 0 0 0 0 0 0 0 0 0 0 0 0 0 0 0 0 0 0 0 0 0 0 0 0 -0 -0 0 0 -0 0 0 0 0 0 0 0
Wind_Speed_500mb
29 32 34 31 28 24 29 37 50 59 62 59 61 73 91 88 84 76 65 56 55 63 66 51 44 44 41 38 41 43 40 41 32 31 28 29 34 36 35 38 40 38 37
44 47 43 44 38 38 33 32 40 53 62 71 69 67 71 90 82 76 46 62 58 87 61 54 46 47 45 43 43 43 42 41 36 33 26 30 30 31 33 32 35 36 42
47 38 44 48 41 41 44 42 35 43 61 73 72 79 76 84 88 81 82 90 99 79 68 49 50 53 47 48 43 42 43 39 34 32 28 13 15 12 17 20 25 27 24
49 52 44 47 49 49 44 50 46 44 46 70 72 79 87 88 89 79 78 73 78 73 56 50 56 56 52 52 43 39 41 40 35 36 39 45 33 16 10 15 18 17 29
38 40 47 52 51 51 52 52 56 56 52 45 74 88 92 96 91 89 91 96 95 80 58 52 61 62 55 51 45 42 41 42 40 39 38 44 42 44 40 31 30 29 29
44 49 52 57 57 55 54 51 55 63 58 53 55 79 95 102 102 109 108 94 83 62 47 58 61 58 55 50 46 41 40 40 39 35 39 39 40 40 36 37 34 29 26
49 58 65 72 72 71 62 57 55 64 65 61 53 67 80 93 96 85 91 87 80 57 62 63 58 54 51 49 46 42 42 39 37 38 36 35 36 36 33 29 27 24 22
57 69 77 82 80 77 63 61 64 65 70 71 62 61 81 80 85 83 86 85 72 65 65 57 51 46 42 44 42 41 38 35 32 33 34 34 34 34 25 27 24 21 20
65 70 69 75 81 76 55 59 63 73 76 79 70 61 72 81 84 90 85 74 68 67 66 51 45 40 41 39 42 42 42 38 34 33 33 29 27 26 26 26 23 22 19
64 56 67 73 74 71 57 60 56 68 78 83 73 68 72 66 78 81 77 76 66 70 64 51 44 43 41 43 39 44 39 35 35 34 32 29 26 27 26 25 24 24 22
48 52 66 73 77 61 52 74 59 60 63 80 77 70 62 64 71 72 74 68 64 59 49 52 45 46 48 47 39 40 35 36 31 33 31 27 27 26 24 25 26 24 23
39 48 58 72 81 70 57 59 58 57 42 57 75 74 69 70 77 74 64 59 54 46 48 50 48 51 54 43 45 37 40 40 35 32 29 29 26 24 22 23 24 23 24
53 54 61 72 80 88 60 67 57 56 40 32 64 71 73 74 77 72 61 56 55 52 53 52 51 56 55 41 41 42 41 36 31 26 27 25 24 22 22 23 23 21 22
55 41 56 72 83 98 86 78 66 53 48 26 43 70 79 76 69 68 62 62 58 57 55 54 52 58 47 46 45 39 40 32 28 30 29 22 19 20 22 23 23 23 24
37 39 59 66 88 99 90 74 69 61 46 24 29 51 63 63 69 62 63 61 58 56 53 51 55 53 49 49 46 43 34 28 30 33 30 23 20 21 24 25 26 26 25
28 43 52 62 67 91 80 60 64 64 52 15 28 33 42 50 58 62 62 60 60 56 52 56 56 51 53 46 43 34 27 29 28 29 27 25 24 24 24 26 28 26 24
35 55 51 69 74 80 71 52 71 59 48 23 19 36 47 54 60 60 57 58 56 51 56 56 57 56 50 44 38 35 26 25 24 23 24 24 25 25 24 26 28 32 26
60 65 54 67 69 71 60 56 60 49 35 24 21 28 43 53 53 50 51 50 52 61 62 62 59 54 48 43 43 35 24 26 23 23 23 23 22 22 24 26 25 22 27
70 72 65 68 78 58 51 59 58 46 35 26 22 36 48 47 45 48 53 58 63 58 64 64 57 49 46 45 43 35 31 29 28 26 25 23 20 19 20 20 23 24 26
71 71 76 77 70 56 46 51 48 34 32 27 15 39 41 42 45 55 62 59 59 69 64 56 49 43 43 44 39 33 30 31 30 28 25 22 19 17 15 18 19 29 27
83 71 78 72 61 49 45 46 36 34 29 23 28 36 41 46 52 64 60 65 68 65 61 53 47 43 41 36 33 30 29 27 26 22 21 20 18 17 18 23 20 24 24
75 70 65 69 56 48 45 39 37 32 21 17 34 39 50 52 59 65 71 68 67 68 60 52 50 46 37 33 31 27 23 22 16 12 17 17 17 18 22 23 19 23 28
68 60 59 63 55 43 33 32 30 27 18 7 35 46 59 63 62 65 73 67 62 61 57 54 48 40 35 31 27 27 28 22 17 14 17 18 19 21 23 23 23 19 20
63 58 59 59 50 32 25 25 20 14 26 15 27 39 71 73 66 61 64 64 62 59 56 49 42 35 31 29 31 31 31 26 19 13 16 21 22 25 28 28 22 13 10
65 57 53 52 44 34 21 16 18 18 37 39 31 21 68 75 72 68 62 55 49 43 42 39 33 30 29 29 27 26 29 24 19 18 20 22 30 38 39 32 26 19 11
61 56 53 48 38 32 24 19 20 29 43 31 60 74 74 73 72 66 61 49 41 33 25 22 16 17 19 30 28 24 23 22 23 23 25 30 41 43 41 34 29 20 15
Wind_Direction_500mb
333 326 318 309 301 279 273 262 253 262 258 264 256 249 243 239 239 229 239 244 260 267 272 266 269 271 273 280 280 271 268 263 255 251 246 252 257 255 253 250 256 262 269
315 315 312 311 298 288 284 274 255 251 260 262 265 262 256 242 230 234 234 242 248 247 252 262 271 274 274 280 278 271 266 256 247 245 252 263 267 260 253 253 265 267 271
313 315 313 313 307 291 281 281 276 258 246 258 261 257 249 240 236 237 231 242 246 251 259 266 272 273 277 279 271 268 263 258 248 250 236 229 229 225 249 256 276 272 279
314 314 308 306 301 301 293 281 277 275 259 247 250 257 255 243 241 243 252 257 263 253 261 266 270 272 276 268 259 258 255 248 238 240 235 238 251 264 259 261 271 264 295
311 318 323 317 310 307 302 290 281 269 267 259 243 246 247 249 241 248 252 258 262 254 255 259 266 270 269 262 249 246 247 241 240 237 235 238 244 253 254 270 268 273 289
314 316 320 318 313 311 305 298 285 276 266 267 258 244 247 242 245 250 254 257 253 244 246 255 263 268 261 249 243 244 240 237 241 231 236 244 242 246 248 256 266 273 281
327 328 328 328 324 319 308 303 293 274 264 263 264 249 245 245 244 245 247 247 244 239 250 254 263 266 256 237 235 234 234 233 222 220 231 238 242 249 258 254 254 266 277
332 333 331 328 324 319 309 305 298 283 264 261 260 247 238 244 247 247 244 245 239 243 245 255 259 259 242 230 231 232 232 211 215 216 227 242 237 245 245 250 251 258 259
331 332 335 332 326 315 299 312 301 291 273 258 256 253 234 236 244 246 243 242 236 237 244 249 254 246 227 226 232 237 211 212 214 219 229 239 233 232 247 250 251 247 249
324 330 339 337 335 310 292 313 302 288 275 257 252 251 235 234 243 243 234 232 232 237 243 242 245 229 223 226 230 210 203 210 212 221 227 231 231 240 245 245 241 244 250
326 333 336 334 333 324 301 313 305 297 268 254 247 240 225 229 228 223 226 228 234 236 238 238 237 223 222 224 216 203 208 201 210 216 229 229 237 239 238 235 236 236 244
329 333 331 332 335 333 315 329 314 312 278 251 241 228 222 228 225 226 225 228 232 236 235 231 225 221 223 220 202 203 205 201 208 222 227 230 226 232 224 228 230 240 245
322 322 326 329 327 334 325 335 321 323 301 265 228 221 222 229 229 226 226 230 228 225 224 219 217 219 220 207 198 210 205 206 212 226 223 221 223 218 224 228 229 240 233
320 319 322 331 320 323 331 320 323 328 323 261 227 215 217 219 225 227 229 225 218 218 211 212 214 216 214 192 201 201 198 203 222 219 205 211 218 223 225 226 233 234 231
321 330 332 327 320 314 323 324 321 335 332 252 225 206 210 212 222 224 219 213 212 208 209 210 205 207 192 190 197 198 199 212 213 206 207 214 225 230 226 230 240 238 231
318 331 331 327 307 307 315 322 316 338 337 264 225 203 187 189 203 207 208 207 203 204 208 201 199 184 190 194 193 196 194 200 204 204 208 222 235 238 234 236 237 239 241
308 318 317 321 312 305 311 319 319 321 326 283 228 219 205 197 200 201 199 202 207 203 196 195 182 186 188 186 189 179 181 183 190 201 217 233 241 237 239 239 242 254 223
309 306 303 304 307 302 304 309 315 312 311 305 225 213 209 198 193 196 203 201 192 195 190 179 181 181 181 179 179 182 193 203 214 222 229 236 234 234 237 242 244 219 224
307 302 300 303 309 299 300 307 314 306 305 270 215 195 194 197 202 203 196 191 186 184 178 173 171 177 178 180 185 189 203 213 220 226 233 230 233 239 237 227 213 215 195
310 301 303 305 305 297 303 305 305 293 299 245 233 205 209 212 213 197 191 183 177 173 165 167 173 175 182 182 191 204 217 219 225 231 226 228 233 215 213 201 206 197 191
307 307 300 305 304 294 298 300 303 297 290 256 223 220 214 212 207 189 182 172 169 165 168 172 175 179 181 189 196 210 219 226 221 218 224 221 210 206 203 200 208 209 198
305 307 304 302 298 291 300 304 304 292 291 244 215 210 207 194 178 172 170 164 165 168 173 176 174 176 182 191 201 214 203 191 191 227 208 203 202 200 193 195 194 190 201
296 297 292 293 286 293 300 307 299 286 233 150 202 203 187 164 162 158 160 164 171 173 172 174 175 178 187 195 195 184 182 186 195 222 215 195 190 189 180 174 163 168 191
295 300 300 297 297 302 309 319 293 284 213 184 129 176 165 160 166 169 167 167 171 174 174 176 180 185 189 189 184 184 179 188 199 224 199 184 187 178 172 157 151 145 161
300 302 300 297 294 301 307 331 303 217 167 178 166 211 174 167 167 171 170 168 172 181 183 183 188 192 194 189 189 191 188 190 199 205 189 185 181 167 161 163 159 155 144
300 296 293 291 287 298 304 297 254 207 164 150 190 197 173 170 170 169 163 169 175 175 178 176 175 177 176 178 176 176 183 189 186 194 183 180 174 168 168 167 167 168 157
Wind_Speed_850mb
29 32 34 31 28 24 29 37 50 59 62 59 61 73 91 88 84 76 65 56 55 63 66 51 44 44 41 38 41 43 40 41 32 31 28 29 34 36 35 38 40 38 37
44 47 43 44 38 38 33 32 40 53 62 71 69 67 71 90 82 76 46 62 58 87 61 54 46 47 45 43 43 43 42 41 36 33 26 30 30 31 33 32 35 36 42
47 38 44 48 41 41 44 42 35 43 61 73 72 79 76 84 88 81 82 90 99 79 68 49 50 53 47 48 43 42 43 39 34 32 28 13 15 12 17 20 25 27 24
49 52 44 47 49 49 44 50 46 44 46 70 72 79 87 88 89 79 78 73 78 73 56 50 56 56 52 52 43 39 41 40 35 36 39 45 33 16 10 15 18 17 29
38 40 47 52 51 51 52 52 56 56 52 45 74 88 92 96 91 89 91 96 95 80 58 52 61 62 55 51 45 42 41 42 40 39 38 44 42 44 40 31 30 29 29
44 49 52 57 57 55 54 51 55 63 58 53 55 79 95 102 102 109 108 94 83 62 47 58 61 58 55 50 46 41 40 40 39 35 39 39 40 40 36 37 34 29 26
49 58 65 72 72 71 62 57 55 64 65 61 53 67 80 93 96 85 91 87 80 57 62 63 58 54 51 49 46 42 42 39 37 38 36 35 36 36 33 29 27 24 22
57 69 77 82 80 77 63 61 64 65 70 71 62 61 81 80 85 83 86 85 72 65 65 57 51 46 42 44 42 41 38 35 32 33 34 34 34 34 25 27 24 21 20
65 70 69 75 81 76 55 59 63 73 76 79 70 61 72 81 84 90 85 74 68 67 66 51 45 40 41 39 42 42 42 38 34 33 33 29 27 26 26 26 23 22 19
64 56 67 73 74 71 57 60 56 68 78 83 73 68 72 66 78 81 77 76 66 70 64 51 44 43 41 43 39 44 39 35 35 34 32 29 26 27 26 25 24 24 22
48 52 66 73 77 61 52 74 59 60 63 80 77 70 62 64 71 72 74 68 64 59 49 52 45 46 48 47 39 40 35 36 31 33 31 27 27 26 24 25 26 24 23
39 48 58 72 81 70 57 59 58 57 42 57 75 74 69 70 77 74 64 59 54 46 48 50 48 51 54 43 45 37 40 40 35 32 29 29 26 24 22 23 24 23 24
53 54 61 72 80 88 60 67 57 56 40 32 64 71 73 74 77 72 61 56 55 52 53 52 51 56 55 41 41 42 41 36 31 26 27 25 24 22 22 23 23 21 22
55 41 56 72 83 98 86 78 66 53 48 26 43 70 79 76 69 68 62 62 58 57 55 54 52 58 47 46 45 39 40 32 28 30 29 22 19 20 22 23 23 23 24
37 39 59 66 88 99 90 74 69 61 46 24 29 51 63 63 69 62 63 61 58 56 53 51 55 53 49 49 46 43 34 28 30 33 30 23 20 21 24 25 26 26 25
28 43 52 62 67 91 80 60 64 64 52 15 28 33 42 50 58 62 62 60 60 56 52 56 56 51 53 46 43 34 27 29 28 29 27 25 24 24 24 26 28 26 24
35 55 51 69 74 80 71 52 71 59 48 23 19 36 47 54 60 60 57 58 56 51 56 56 57 56 50 44 38 35 26 25 24 23 24 24 25 25 24 26 28 32 26
60 65 54 67 69 71 60 56 60 49 35 24 21 28 43 53 53 50 51 50 52 61 62 62 59 54 48 43 43 35 24 26 23 23 23 23 22 22 24 26 25 22 27
70 72 65 68 78 58 51 59 58 46 35 26 22 36 48 47 45 48 53 58 63 58 64 64 57 49 46 45 43 35 31 29 28 26 25 23 20 19 20 20 23 24 26
71 71 76 77 70 56 46 51 48 34 32 27 15 39 41 42 45 55 62 59 59 69 64 56 49 43 43 44 39 33 30 31 30 28 25 22 19 17 15 18 19 29 27
83 71 78 72 61 49 45 46 36 34 29 23 28 36 41 46 52 64 60 65 68 65 61 53 47 43 41 36 33 30 29 27 26 22 21 20 18 17 18 23 20 24 24
75 70 65 69 56 48 45 39 37 32 21 17 34 39 50 52 59 65 71 68 67 68 60 52 50 46 37 33 31 27 23 22 16 12 17 17 17 18 22 23 19 23 28
68 60 59 63 55 43 33 32 30 27 18 7 35 46 59 63 62 65 73 67 62 61 57 54 48 40 35 31 27 27 28 22 17 14 17 18 19 21 23 23 23 19 20
63 58 59 59 50 32 25 25 20 14 26 15 27 39 71 73 66 61 64 64 62 59 56 49 42 35 31 29 31 31 31 26 19 13 16 21 22 25 28 28 22 13 10
65 57 53 52 44 34 21 16 18 18 37 39 31 21 68 75 72 68 62 55 49 43 42 39 33 30 29 29 27 26 29 24 19 18 20 22 30 38 39 32 26 19 11
61 56 53 48 38 32 24 19 20 29 43 31 60 74 74 73 72 66 61 49 41 33 25 22 16 17 19 30 28 24 23 22 23 23 25 30 41 43 41 34 29 20 15
Wind_Direction_850mb
333 326 318 309 301 279 273 262 253 262 258 264 256 249 243 239 239 229 239 244 260 267 272 266 269 271 273 280 280 271 268 263 255 251 246 252 257 255 253 250 256 262 269
315 315 312 311 298 288 284 274 255 251 260 262 265 262 256 242 230 234 234 242 248 247 252 262 271 274 274 280 278 271 266 256 247 245 252 263 267 260 253 253 265 267 271
313 315 313 313 307 291 281 281 276 258 246 258 261 257 249 240 236 237 231 242 246 251 259 266 272 273 277 279 271 268 263 258 248 250 236 229 229 225 249 256 276 272 279
314 314 308 306 301 301 293 281 277 275 259 247 250 257 255 243 241 243 252 257 263 253 261 266 270 272 276 268 259 258 255 248 238 240 235 238 251 264 259 261 271 264 295
311 318 323 317 310 307 302 290 281 269 267 259 243 246 247 249 241 248 252 258 262 254 255 259 266 270 269 262 249 246 247 241 240 237 235 238 244 253 254 270 268 273 289
314 316 320 318 313 311 305 298 285 276 266 267 258 244 247 242 245 250 254 257 253 244 246 255 263 268 261 249 243 244 240 237 241 231 236 244 242 246 248 256 266 273 281
327 328 328 328 324 319 308 303 293 274 264 263 264 249 245 245 244 245 247 247 244 239 250 254 263 266 256 237 235 234 234 233 222 220 231 238 242 249 258 254 254 266 277
332 333 331 328 324 319 309 305 298 283 264 261 260 247 238 244 247 247 244 245 239 243 245 255 259 259 242 230 231 232 232 211 215 216 227 242 237 245 245 250 251 258 259
331 332 335 332 326 315 299 312 301 291 273 258 256 253 234 236 244 246 243 242 236 237 244 249 254 246 227 226 232 237 211 212 214 219 229 239 233 232 247 250 251 247 249
324 330 339 337 335 310 292 313 302 288 275 257 252 251 235 234 243 243 234 232 232 237 243 242 245 229 223 226 230 210 203 210 212 221 227 231 231 240 245 245 241 244 250
326 333 336 334 333 324 301 313 305 297 268 254 247 240 225 229 228 223 226 228 234 236 238 238 237 223 222 224 216 203 208 201 210 216 229 229 237 239 238 235 236 236 244
329 333 331 332 335 333 315 329 314 312 278 251 241 228 222 228 225 226 225 228 232 236 235 231 225 221 223 220 202 203 205 201 208 222 227 230 226 232 224 228 230 240 245
322 322 326 329 327 334 325 335 321 323 301 265 228 221 222 229 229 226 226 230 228 225 224 219 217 219 220 207 198 210 205 206 212 226 223 221 223 218 224 228 229 240 233
320 319 322 331 320 323 331 320 323 328 323 261 227 215 217 219 225 227 229 225 218 218 211 212 214 216 214 192 201 201 198 203 222 219 205 211 218 223 225 226 233 234 231
321 330 332 327 320 314 323 324 321 335 332 252 225 206 210 212 222 224 219 213 212 208 209 210 205 207 192 190 197 198 199 212 213 206 207 214 225 230 226 230 240 238 231
318 331 331 327 307 307 315 322 316 338 337 264 225 203 187 189 203 207 208 207 203 204 208 201 199 184 190 194 193 196 194 200 204 204 208 222 235 238 234 236 237 239 241
308 318 317 321 312 305 311 319 319 321 326 283 228 219 205 197 200 201 199 202 207 203 196 195 182 186 188 186 189 179 181 183 190 201 217 233 241 237 239 239 242 254 223
309 306 303 304 307 302 304 309 315 312 311 305 225 213 209 198 193 196 203 201 192 195 190 179 181 181 181 179 179 182 193 203 214 222 229 236 234 234 237 242 244 219 224
307 302 300 303 309 299 300 307 314 306 305 270 215 195 194 197 202 203 196 191 186 184 178 173 171 177 178 180 185 189 203 213 220 226 233 230 233 239 237 227 213 215 195
310 301 303 305 305 297 303 305 305 293 299 245 233 205 209 212 213 197 191 183 177 173 165 167 173 175 182 182 191 204 217 219 225 231 226 228 233 215 213 201 206 197 191
307 307 300 305 304 294 298 300 303 297 290 256 223 220 214 212 207 189 182 172 169 165 168 172 175 179 181 189 196 210 219 226 221 218 224 221 210 206 203 200 208 209 198
305 307 304 302 298 291 300 304 304 292 291 244 215 210 207 194 178 172 170 164 165 168 173 176 174 176 182 191 201 214 203 191 191 227 208 203 202 200 193 195 194 190 201
296 297 292 293 286 293 300 307 299 286 233 150 202 203 187 164 162 158 160 164 171 173 172 174 175 178 187 195 195 184 182 186 195 222 215 195 190 189 180 174 163 168 191
295 300 300 297 297 302 309 319 293 284 213 184 129 176 165 160 166 169 167 167 171 174 174 176 180 185 189 189 184 184 179 188 199 224 199 184 187 178 172 157 151 145 161
300 302 300 297 294 301 307 331 303 217 167 178 166 211 174 167 167 171 170 168 172 181 183 183 188 192 194 189 189 191 188 190 199 205 189 185 181 167 161 163 159 155 144
300 296 293 291 287 298 304 297 254 207 164 150 190 197 173 170 170 169 163 169 175 175 178 176 175 177 176 178 176 176 183 189 186 194 183 180 174 168 168 167 167 168 157